Location: Hylo
(54.6785°N, 112.2142°W)
Time: 11:06:30
(UTC+00:00)

Envisat - Pass Details

Date: 10 June 2023
Orbit: 763 x 764 km, 98.2° (Epoch: 23 September)

Event Time Altitude Azimuth Distance (km) Brightness Sun altitude
Rises 09:43:12 0° 28° (NNE) 3,243 8.9 -7.1°
Reaches altitude 10° 09:47:07 10° 59° (ENE) 2,310 6.7 -6.8°
Maximum altitude 09:49:07 12° 82° (E) 2,155 5.9 -6.7°
Drops below altitude 10° 09:51:07 10° 106° (ESE) 2,304 5.7 -6.5°
Sets 09:54:59 0° 136° (SE) 3,224 6.1 -6.2°
